When you browse on this site, cookies collect data to enhance your experience and personalize the content and advertising you see.
Visit our Privacy Policy to learn more. By continuing to use the site, you agree to this use of cookies and data.
  • In Latvia
  • List of Countries
  • For 7 days
  • Water Temperature
  • Weather Map
  • Weather Widgets
  • user-avatar
    Login

    Hourly Weather Orsha

    Today, 26 May, Tuesday

    Time Temperature Precipitation Wind Pressure Humidity
    00:00 +8°C° 0 mm 2 mps 752 mmHg 88%
    01:00 +7°C° 0 mm 2 mps 752 mmHg 89%
    02:00 +7°C° 0 mm 2 mps 752 mmHg 90%
    03:00 +7°C° 0 mm 2 mps 753 mmHg 90%
    04:00 +8°C° 0 mm 2 mps 753 mmHg 90%
    05:00 +8°C° 0 mm 3 mps 753 mmHg 90%
    06:00 +10°C° 0 mm 3 mps 753 mmHg 86%
    07:00 +11°C° 0 mm 3 mps 753 mmHg 82%
    08:00 +13°C° 0 mm 3 mps 753 mmHg 78%
    09:00 +14°C° 0.2 mm 3 mps 753 mmHg 73%
    10:00 +16°C° 0.2 mm 3 mps 753 mmHg 67%
    11:00 +18°C° 0.2 mm 4 mps 753 mmHg 62%
    12:00 +18°C° 0.1 mm 4 mps 753 mmHg 61%
    13:00 +18°C° 0.1 mm 4 mps 753 mmHg 61%
    14:00 +18°C° 0.1 mm 4 mps 753 mmHg 60%
    15:00 +18°C° 0.2 mm 4 mps 753 mmHg 64%
    16:00 +18°C° 0.2 mm 4 mps 753 mmHg 67%
    17:00 +17°C° 0.2 mm 4 mps 752 mmHg 71%
    18:00 +16°C° 0.1 mm 3 mps 752 mmHg 74%
    19:00 +14°C° 0.1 mm 3 mps 752 mmHg 77%
    20:00 +12°C° 0.1 mm 3 mps 752 mmHg 80%
    21:00 +12°C° 0 mm 2 mps 752 mmHg 81%
    22:00 +12°C° 0 mm 2 mps 752 mmHg 83%
    23:00 +11°C° 0 mm 1 mps 752 mmHg 85%

    Tomorrow, 27 May, Wednesday

    Time Temperature Precipitation Wind Pressure Humidity
    00:00 +10°C° 0 mm 1 mps 752 mmHg 85%
    01:00 +9°C° 0 mm 2 mps 752 mmHg 86%
    02:00 +9°C° 0 mm 2 mps 752 mmHg 86%
    03:00 +9°C° 0 mm 2 mps 751 mmHg 86%
    04:00 +9°C° 0 mm 2 mps 751 mmHg 87%
    05:00 +9°C° 0 mm 2 mps 751 mmHg 87%
    06:00 +10°C° 0 mm 3 mps 751 mmHg 83%
    07:00 +12°C° 0 mm 3 mps 751 mmHg 80%
    08:00 +13°C° 0 mm 3 mps 752 mmHg 76%
    09:00 +14°C° 0.1 mm 3 mps 751 mmHg 71%
    10:00 +16°C° 0.1 mm 3 mps 751 mmHg 66%
    11:00 +18°C° 0.1 mm 4 mps 751 mmHg 61%
    12:00 +18°C° 0.4 mm 3 mps 751 mmHg 61%
    13:00 +18°C° 0.4 mm 3 mps 751 mmHg 61%
    14:00 +18°C° 0.4 mm 2 mps 750 mmHg 62%
    15:00 +17°C° 0.4 mm 2 mps 750 mmHg 64%
    16:00 +17°C° 0.4 mm 2 mps 750 mmHg 67%
    17:00 +17°C° 0.4 mm 2 mps 750 mmHg 69%
    18:00 +16°C° 0.1 mm 2 mps 750 mmHg 72%
    19:00 +14°C° 0.1 mm 1 mps 749 mmHg 76%
    20:00 +13°C° 0.1 mm 1 mps 749 mmHg 79%
    21:00 +12°C° 0 mm 1 mps 749 mmHg 80%
    22:00 +12°C° 0 mm 1 mps 749 mmHg 81%
    23:00 +11°C° 0 mm 1 mps 749 mmHg 82%

    Day after tomorrow, 28 May, Thursday

    Time Temperature Precipitation Wind Pressure Humidity
    00:00 +11°C° 0 mm 1 mps 749 mmHg 83%
    01:00 +10°C° 0 mm 1 mps 749 mmHg 84%
    02:00 +10°C° 0 mm 1 mps 748 mmHg 85%
    03:00 +10°C° 0 mm 1 mps 748 mmHg 86%
    04:00 +10°C° 0 mm 1 mps 748 mmHg 86%
    05:00 +9°C° 0 mm 2 mps 748 mmHg 87%
    06:00 +12°C° 0 mm 2 mps 748 mmHg 82%
    07:00 +13°C° 0 mm 2 mps 748 mmHg 78%
    08:00 +15°C° 0 mm 2 mps 748 mmHg 73%
    09:00 +16°C° 0 mm 2 mps 748 mmHg 68%
    10:00 +17°C° 0 mm 3 mps 747 mmHg 63%
    11:00 +19°C° 0 mm 3 mps 747 mmHg 58%
    12:00 +19°C° 0 mm 3 mps 747 mmHg 57%
    13:00 +19°C° 0 mm 3 mps 746 mmHg 56%
    14:00 +20°C° 0 mm 3 mps 746 mmHg 55%
    15:00 +19°C° 0.2 mm 3 mps 746 mmHg 58%
    16:00 +19°C° 0.2 mm 3 mps 745 mmHg 62%
    17:00 +19°C° 0.2 mm 3 mps 745 mmHg 65%
    18:00 +17°C° 0.1 mm 3 mps 745 mmHg 70%
    19:00 +16°C° 0.1 mm 3 mps 745 mmHg 76%
    20:00 +13°C° 0.1 mm 3 mps 745 mmHg 81%
    21:00 +12°C° 0 mm 3 mps 744 mmHg 83%
    22:00 +11°C° 0 mm 3 mps 744 mmHg 86%
    23:00 +10°C° 0 mm 3 mps 744 mmHg 88%

    29 May, Friday

    Time Temperature Precipitation Wind Pressure Humidity
    00:00 +10°C° 0 mm 3 mps 744 mmHg 89%
    01:00 +10°C° 0 mm 3 mps 744 mmHg 91%
    02:00 +9°C° 0 mm 3 mps 744 mmHg 92%
    03:00 +8°C° 0 mm 4 mps 744 mmHg 92%
    04:00 +8°C° 0 mm 4 mps 744 mmHg 92%
    05:00 +9°C° 0 mm 5 mps 744 mmHg 93%
    06:00 +10°C° 0 mm 5 mps 744 mmHg 90%
    07:00 +10°C° 0 mm 5 mps 744 mmHg 87%
    08:00 +12°C° 0 mm 5 mps 744 mmHg 84%
    09:00 +14°C° 0.1 mm 5 mps 744 mmHg 80%
    10:00 +15°C° 0.1 mm 6 mps 744 mmHg 76%
    11:00 +16°C° 0.1 mm 6 mps 745 mmHg 71%
    12:00 +17°C° 0.3 mm 6 mps 745 mmHg 71%
    13:00 +17°C° 0.3 mm 6 mps 745 mmHg 70%
    14:00 +17°C° 0.3 mm 5 mps 745 mmHg 70%
    15:00 +17°C° 0.3 mm 5 mps 745 mmHg 72%
    16:00 +16°C° 0.3 mm 5 mps 745 mmHg 73%
    17:00 +17°C° 0.3 mm 4 mps 745 mmHg 75%
    18:00 +15°C° 0 mm 4 mps 745 mmHg 81%
    19:00 +13°C° 0 mm 3 mps 745 mmHg 86%
    20:00 +12°C° 0 mm 3 mps 745 mmHg 92%
    21:00 +11°C° 0 mm 3 mps 745 mmHg 93%
    22:00 +11°C° 0 mm 3 mps 745 mmHg 94%
    23:00 +10°C° 0 mm 3 mps 745 mmHg 95%

    30 May, Saturday

    Time Temperature Precipitation Wind Pressure Humidity
    00:00 +10°C° 0 mm 3 mps 745 mmHg 96%
    01:00 +9°C° 0 mm 3 mps 745 mmHg 96%
    02:00 +8°C° 0 mm 4 mps 745 mmHg 97%
    03:00 +8°C° 0 mm 4 mps 745 mmHg 97%
    04:00 +8°C° 0 mm 4 mps 744 mmHg 97%
    05:00 +8°C° 0 mm 5 mps 744 mmHg 96%
    06:00 +9°C° 0 mm 5 mps 744 mmHg 95%
    07:00 +10°C° 0 mm 5 mps 744 mmHg 93%
    08:00 +11°C° 0 mm 6 mps 745 mmHg 92%
    09:00 +11°C° 0 mm 6 mps 744 mmHg 91%
    10:00 +11°C° 0 mm 6 mps 744 mmHg 90%
    11:00 +13°C° 0 mm 6 mps 744 mmHg 88%
    12:00 +14°C° 0 mm 6 mps 744 mmHg 84%
    13:00 +15°C° 0 mm 6 mps 744 mmHg 80%
    14:00 +16°C° 0 mm 6 mps 743 mmHg 76%
    15:00 +16°C° 0.3 mm 6 mps 743 mmHg 79%
    16:00 +16°C° 0.3 mm 5 mps 743 mmHg 81%
    17:00 +15°C° 0.3 mm 5 mps 743 mmHg 83%
    18:00 +15°C° 0.3 mm 5 mps 742 mmHg 85%
    19:00 +14°C° 0.3 mm 5 mps 742 mmHg 87%
    20:00 +14°C° 0.3 mm 5 mps 741 mmHg 89%
    21:00 +13°C° 0.1 mm 5 mps 741 mmHg 89%
    22:00 +13°C° 0.1 mm 5 mps 740 mmHg 90%
    23:00 +13°C° 0.1 mm 5 mps 740 mmHg 90%

    31 May, Sunday

    Time Temperature Precipitation Wind Pressure Humidity
    00:00 +13°C° 1.7 mm 6 mps 740 mmHg 92%
    01:00 +13°C° 1.7 mm 6 mps 739 mmHg 94%
    02:00 +12°C° 1.7 mm 7 mps 739 mmHg 95%
    03:00 +12°C° 2.1 mm 7 mps 738 mmHg 95%
    04:00 +12°C° 2.1 mm 8 mps 738 mmHg 95%
    05:00 +12°C° 2.1 mm 8 mps 738 mmHg 95%
    06:00 +12°C° 0.4 mm 8 mps 738 mmHg 94%
    07:00 +13°C° 0.4 mm 8 mps 738 mmHg 92%
    08:00 +13°C° 0.4 mm 8 mps 738 mmHg 91%
    09:00 +13°C° 0.2 mm 8 mps 738 mmHg 90%
    10:00 +13°C° 0.2 mm 8 mps 738 mmHg 89%
    11:00 +13°C° 0.2 mm 8 mps 739 mmHg 87%
    12:00 +13°C° 0.9 mm 8 mps 739 mmHg 87%
    13:00 +13°C° 0.9 mm 8 mps 739 mmHg 87%
    14:00 +12°C° 0.9 mm 8 mps 739 mmHg 86%
    15:00 +12°C° 1 mm 7 mps 739 mmHg 87%
    16:00 +12°C° 1 mm 7 mps 739 mmHg 87%
    17:00 +11°C° 1 mm 6 mps 739 mmHg 87%
    18:00 +12°C° 0.7 mm 5 mps 739 mmHg 86%
    19:00 +12°C° 0.7 mm 5 mps 740 mmHg 85%
    20:00 +12°C° 0.7 mm 5 mps 740 mmHg 85%
    21:00 +12°C° 0.1 mm 5 mps 740 mmHg 82%
    22:00 +11°C° 0.1 mm 6 mps 741 mmHg 80%
    23:00 +10°C° 0.1 mm 6 mps 741 mmHg 78%
    Show more